www.pogodaiklimat.ru

Погода и климат >> Архив погоды >> Россия >> Якутия >> Томпо


ПОГОДА в Томпо

  • Прогноз погоды в Томпо
  • Монитор погоды в Томпо
  • Климат города

АРХИВ ПОГОДЫ в Томпо

Время (UTC), дата Ветер
(напр.,м/с)
 
Видим.   Явления Облачность Т
(С)
Тd
(С)
f
(%)
Тe
(С)
Тes
(С)
Комфортность P
(гПа)
Po
(гПа)
Тmin
(С)
Tmax
(С)
R
(мм)
R24
(мм)
S
(см)
12 11.12 СЗ 3 50 км 3/0
[Ci fib]
-44.0 -47.6 67 -56 -56 опасность
обморожения
1048.8 988.0
15 11.12 СЗ 1 50 км 3/0
[Ci fib]
-44.6 -47.6 72 -50 -50 опасность
обморожения
1048.7 987.6
18 11.12 СЗ 1 50 км 3/0
[Ci fib]
-44.7 -47.6 72 -50 -50 опасность
обморожения
1048.4 987.3
21 11.12 С 2 50 км 3/0
[Ci fib]
-44.6 -47.6 72 -54 -54 опасность
обморожения
1048.2 987.1 -44.9 12
00 12.12 СЗ 2 50 км 8/0
[Cs]
-44.0 -47.6 67 -54 -54 опасность
обморожения
1047.2 986.5
03 12.12 С 2 50 км 4/0
[As trans Cc]
-42.9 -46.2 70 -53 -53 опасность
обморожения
1046.4 986.0
06 12.12 СЗ 1 50 км 6/0
[Cs]
-42.6 -46.2 68 -48 -48 опасность
обморожения
1045.9 985.5
09 12.12 СЗ 1 50 км 6/0
[Cs]
-43.0 -46.2 71 -49 -49 опасность
обморожения
1046.1 985.7 -42.6
12 12.12 СЗ 2 50 км 6/0
[Cs]
-43.3 -46.9 67 -53 -53 опасность
обморожения
1045.8 985.4
15 12.12 СЗ 3 50 км 6/0
[Cs]
-44.1 -47.6 68 -57 -57 опасность
обморожения
1046.2 985.5
18 12.12 СЗ 1 50 км 6/0
[Cs]
-43.9 -46.9 72 -50 -50 опасность
обморожения
1046.4 985.7
21 12.12 С 2 50 км 10/0
[As trans Cs]
-41.8 -45.0 71 -51 -51 опасность
обморожения
1045.6 985.5 -44.5 12
00 13.12 З 2 50 км 10/0
[Ac As Cs]
-39.8 -43.4 68 -49 -49 опасность
обморожения
1045.1 985.5
03 13.12 С 1 50 км 9/0
[Ac As]
-38.2 -41.6 70 -43 -43 опасность
обморожения
1043.7 984.7
06 13.12 С 1 50 км 8/0
[Ac trans]
-38.7 -42.0 71 -44 -44 опасность
обморожения
1043.2 984.0
09 13.12 С 1 50 км 10/0
[Ac As]
-37.9 -41.6 68 -43 -43 опасность
обморожения
1042.8 983.8 -37.9
12 13.12 СЗ 1 20 км слабый снег 10/0
[Ac As]
-35.6 -39.0 71 -40 -40 опасность
обморожения
1041.2 982.9
15 13.12 СЗ 1 20 км слабый снег 10/0
[Ac As]
-33.8 -37.5 69 -38 -38 опасность
обморожения
1040.0 982.2
18 13.12 СЗ 1 20 км слабый снег 10/0
[Ac As]
-32.1 -35.7 70 -36 -36 опасность
обморожения
1038.5 981.2
21 13.12 СЗ 1 20 км слабый снег 10/0
[Ac As]
-31.6 -35.2 70 -36 -36 опасность
обморожения
1037.9 980.7 -37.9 0.0 12
00 14.12 СЗ 3 20 км слабый снег 10/0
[Ac As]
-31.9 -35.7 69 -42 -42 опасность
обморожения
1037.1 979.9
03 14.12 СЗ 3 20 км слабый снег 10/0
[Ac As]
-32.6 -36.2 70 -43 -43 опасность
обморожения
1036.8 979.3
06 14.12 СЗ 3 50 км {снег} 8/0
[Ac As Ci fib]
-34.7 -38.4 69 -45 -45 опасность
обморожения
1037.2 979.2
09 14.12 СЗ 3 50 км 3/0
[Ac trans]
-36.6 -40.1 70 -48 -48 опасность
обморожения
1037.7 979.2 -31.3 0.0
12 14.12 С 2 50 км 8/0
[Ac trans Cs]
-39.0 -42.5 69 -48 -48 опасность
обморожения
1037.8 978.9
15 14.12 С 1 50 км 8/0
[Ac trans Cs]
-39.6 -42.9 71 -45 -45 опасность
обморожения
1037.5 978.4
18 14.12 СЗ 1 50 км 3/0
[Ci fib]
-42.2 -45.6 69 -48 -48 опасность
обморожения
1037.3 977.7
21 14.12 С 2 50 км 3/0
[Ci fib]
-42.8 -46.2 69 -52 -52 опасность
обморожения
1037.0 977.1 -42.9 12
00 15.12 СЗ 2 50 км 3/0
[Ci fib]
-43.1 -46.2 71 -53 -53 опасность
обморожения
1035.5 975.7 -43.4
03 15.12 С 2 50 км 3/0
[Ci fib]
-42.6 -46.2 68 -52 -52 опасность
обморожения
1034.1 974.4
06 15.12 СЗ 2 50 км 6/0
[Ci fib]
-42.1 -45.6 68 -52 -52 опасность
обморожения
1032.6 973.2
09 15.12 СЗ 1 50 км 6/0
[Ci fib]
-41.7 -45.0 70 -47 -47 опасность
обморожения
1031.7 972.4 -41.7
12 15.12 СЗ 1 50 км 4/0
[Ci fib]
-42.0 -45.6 68 -47 -47 опасность
обморожения
1030.7 971.3
15 15.12 штиль 0 50 км 4/0
[Ci fib]
-42.4 -45.6 71 -42 -42 опасность
обморожения
1029.8 970.6
18 15.12 штиль 0 20 км слабый снег 10/0
[Ac As]
-38.3 -41.6 71 -38 -38 опасность
обморожения
1028.2 970.1
21 15.12 штиль 0 20 км слабый снег 10/0
[Ac As]
-36.1 -39.7 69 -36 -36 опасность
обморожения
1026.7 969.1 -42.5 0.0 12
00 16.12 штиль 0 50 км {снег} 10/0
[Ac As Cs]
-37.4 -40.8 70 -37 -37 опасность
обморожения
1026.3 968.5
03 16.12 С 1 50 км 9/0
[Ac trans Cs]
-37.4 -40.8 70 -42 -42 опасность
обморожения
1025.7 967.9
06 16.12 С 1 50 км 8/0
[Ac lent Cs]
-37.9 -41.6 68 -43 -43 опасность
обморожения
1025.4 967.4
09 16.12 С 2 50 км 6/0
[Ac lent Cs]
-38.8 -42.5 68 -48 -48 опасность
обморожения
1024.9 966.8 -37.4 0.0
12 16.12 штиль 0 50 км 4/0
[Ci fib]
-42.3 -45.6 70 -42 -42 опасность
обморожения
1025.5 966.6
15 16.12 штиль 0 50 км 6/0
[Cs]
-42.0 -45.6 68 -42 -42 опасность
обморожения
1025.1 966.2
18 16.12 штиль 0 50 км 6/0
[Ac trans Ci fib]
-41.4 -45.0 68 -41 -41 опасность
обморожения
1024.6 965.9
21 16.12 С 1 4000 м слабый снег 10/0
[As op]
-38.5 -42.0 69 -44 -44 опасность
обморожения
1022.9 964.9 -43.1 0.0 12
00 17.12 С 2 50 км {снег} 8/0
[As trans]
-36.8 -40.4 69 -45 -45 опасность
обморожения
1021.5 964.0
03 17.12 С 2 50 км 8/0
[As trans Cs]
-34.7 -38.4 69 -43 -43 опасность
обморожения
1020.8 963.8
06 17.12 С 2 50 км 8/0
[As trans Cs]
-33.5 -37.2 69 -42 -42 опасность
обморожения
1020.4 963.6
09 17.12 С 1 50 км 8/0
[As trans Cs]
-30.1 -38.7 43 -34 -34 опасность
обморожения
1020.8 963.8 0.0
12 17.12 С 1 50 км 8/0
[As trans Cs]
-35.1 -38.7 69 -40 -40 опасность
обморожения
1021.8 964.8
15 17.12 С 2 50 км 4/0
[Cs]
-36.6 -40.1 70 -45 -45 опасность
обморожения
1022.8 965.2
18 17.12 С 2 50 км 4/0
[Cs]
-36.9 -40.4 70 -46 -46 опасность
обморожения
1022.9 965.3
21 17.12 С 2 50 км 4/0
[Cs]
-37.0 -40.4 70 -46 -46 опасность
обморожения
1023.0 965.4 -37.4 12
00 18.12 С 2 50 км 4/0
[Ac trans Ci fib]
-35.0 -39.7 62 -43 -43 опасность
обморожения
1022.4 965.0
03 18.12 С 1 50 км 3/0
[Ci fib]
-37.5 -41.2 68 -42 -42 опасность
обморожения
1022.9 965.0
06 18.12 ЮВ 1 50 км 3/0
[Ci fib]
-41.2 -44.4 71 -47 -47 опасность
обморожения
1023.3 964.8
09 18.12 В 2 50 км 4/0
[Cs]
-41.0 -44.4 69 -50 -50 опасность
обморожения
1024.1 965.4 -36.0

 

Местоположение метеостанции Томпо (Якутия, Россия): широта 63.95 долгота 135.80 высота над уровнем моря 402 м.

В архиве по умолчанию представлена погода в Томпо за последнюю неделю. Архивные данные за месяц целиком и за предыдущие месяцы, начиная с января 2011 года, Вы можете получить, выбрав интересующий диапазон дат из раскрывающегося списка и нажав кнопку "Ввод!".

Внимание! Время в таблицах - всемирное. Для получения местного времени необходимо прибавить поправку, которая в Томпо равна 9 ч.

Смотрите также архив погоды в соседних городах и на ближайших метеорологических станциях:

Погода в Теплом Ключе (Якутия, Россия) (139 км)
Погода в Крест-Хальджае (Якутия, Россия) (144 км)
Погода в Иэме (Якутия, Россия) (150 км)
Погода в Верхоянском Перевозе (Якутия, Россия) (200 км)
Погода в Восточной (Якутия, Россия) (204 км)
Погода в Ытык-Кюёле (Якутия, Россия) (210 км)
Погода в Охотском Перевозе (Якутия, Россия) (232 км)
Погода в Чурапче (Якутия, Россия) (268 км)
Погода в Сеген-Кюели (Якутия, Россия) (268 км)
Погода в Юртах (Якутия, Россия) (293 км)

Пояснения к столбцам:

Ветер - указаны скорость ветра в м/с - средняя за 10 мин, порывы в срок и между сроками (в фигурных скобках) и направление, откуда дует ветер: С - северный, СВ - северо-восточный, В - восточный, ЮВ - юго-восточный, Ю - южный, ЮЗ - юго-западный, З - западный, СЗ - северо-западный.
Видимость - горизонтальная дальность видимости в метрах или километрах. При видимости от 1 до 10 км при отсутствии осадков обычно наблюдается дымка, при ухудшении видимости до 1 км и менее - туман. В сухую погоду видимость может ухудшаться дымом, пылью или мглою.
Явления - указаны атмосферные явления, наблюдавшиеся в срок или в последний час перед сроком; фигурными скобками обозначены явления, наблюдавшиеся между сроками (за 1-3 часа до срока); квадратными скобками обозначены град или гололедные отложения с указанием их диаметра в мм.
Облачность - указаны через наклонную черту общая и нижняя облачность в баллах и высота нижней границы облаков в метрах; квадратными скобками обозначены формы облаков: Ci - перистые, Cs - перисто-слоистые, Cc - перисто-кучевые, Ac - высококучевые, As - высокослоистые, Sc - слоисто-кучевые, Ns - слоисто-дождевые, Cu - кучевые, Cb - кучево-дождевые. Подробнее классификацию облаков см. в Атласе облаков (PDF).
T - Температура воздуха - температура, измеренная на высоте 2 м над землей.
Td - Температура точки росы - температура, при понижении до которой содержащийся в воздухе водяной пар достигнет насыщения.
f - Относительная влажность воздуха - влажноcть воздуха, измеренная на высоте 2 м над землей.
Te - Эффективная температура - температура, которую ощущает одетый по сезону человек в тени. Характеристика душности погоды. При расчете учитывается влияние влажности воздуха и скорости ветра на теплоощущения человека.
Tes - Эффективная температура на солнце - температура, которую ощущает человек, с поправкой на солнечный нагрев. Характеристика знойности погоды. Зависит от высоты солнца над горизонтом, облачности и скорости ветра. Ночью, в пасмурную погоду, а также при ветре 12 м/с и более поправка равна нулю.
P - Атмосферное давление - приведенное к уровню моря атмосферное давление.
Po - Атмосферное давление - измеренное на уровне метеостанции атмосферное давление.
Tmin - Минимальная температура - минимум температуры воздуха на высоте 2 м над землей.
Tmax - Максимальная температура - максимум температуры воздуха на высоте 2 м над землей.
R - Количество осадков - Количество выпавших осадков за период времени, мм. При наведении курсора мыши на число - период времени, за который выпало указанное количество осадков.
R24 - Количество осадков - Количество выпавших осадков за 24 часа, мм.
S - Снежный покров - Высота снежного покрова, см. При наведении курсора мыши на число - состояние снежного покрова и степень покрытия местности в баллах.